Location: Bennemühlen
(52.5740°N, 9.7135°E)
Time: 20:41:40
(UTC+00:00)

SL-16 R/B - Pass Details

Date: 19 May 2025
Orbit: 841 x 844 km, 71.0° (Epoch: 20 June)

Event Time Altitude Azimuth Distance (km) Brightness Sun altitude
Rises 22:40:23 0° 327° (NNW) 3,415 6.6 -17.0°
Reaches altitude 10° 22:42:51 10° 324° (NW) 2,476 5.6 -17.1°
Maximum altitude 22:48:27 63° 245° (WSW) 945 2.3 -17.2°
Enters shadow 22:51:19 29° 175° (S) 1,508 2.9 -17.2°
